Location: Laura�t
(43.9341°N, 0.2497°E)
Time: 10:28:15
(UTC+00:00)

SeaSat 1 - Pass Details

Date: 03 March 2021
Orbit: 744 x 747 km, 108.0° (Epoch: 18 April)

Event Time Altitude Azimuth Distance (km) Brightness Sun altitude
Rises 19:34:42 0° 23° (NNE) 3,200 5.6 -19.6°
Reaches altitude 10° 19:37:00 10° 19° (NNE) 2,272 4.9 -20.0°
Maximum altitude 19:41:49 55° 302° (WNW) 893 3.1 -20.8°
Drops below altitude 10° 19:46:37 10° 226° (SW) 2,260 5.3 -21.7°
Sets 19:48:54 0° 222° (SW) 3,180 6.1 -22.1°
